SWA1311 MUHA-KTPA

Flight info

Callsign SWA1311
Flight time 0h 51m
Altitude 37000
Route EMUPA3 MAXIM Y262 TUNSL Q81 KARTR/N0459F380 DCT FERAL BLFRG3
Aircraft B738/M-SDE2E3FGHIRWXY/LB1

Departure

Time 2026-05-05 03:17
Airport José Martí International Airport (MUHA)

Arrival

Time 2026-05-05 04:08
Airport Tampa International Airport (KTPA)
Time Latitude Longitude Altitude Speed Heading
2026-05-05 03:01 22.99675 -82.40753 218 ft 0 kts 53°
2026-05-05 03:05 22.99672 -82.40757 221 ft 2 kts 62°
2026-05-05 03:05 22.99666 -82.40774 218 ft 2 kts 81°
2026-05-05 03:05 22.99665 -82.40787 218 ft 0 kts 81°
2026-05-05 03:08 22.99661 -82.40777 218 ft 1 kts 114°
2026-05-05 03:08 22.99655 -82.40772 223 ft 4 kts 143°
2026-05-05 03:09 22.99593 -82.40770 220 ft 11 kts 167°
2026-05-05 03:09 22.99543 -82.40736 218 ft 3 kts 144°
2026-05-05 03:09 22.99529 -82.40725 220 ft 2 kts 144°
2026-05-05 03:09 22.99512 -82.40712 218 ft 3 kts 144°
2026-05-05 03:10 22.99478 -82.40700 218 ft 9 kts 187°
2026-05-05 03:10 22.99434 -82.40753 220 ft 10 kts 233°
2026-05-05 03:10 22.99394 -82.40813 223 ft 10 kts 234°
2026-05-05 03:10 22.99337 -82.40840 221 ft 9 kts 168°
2026-05-05 03:11 22.99283 -82.40800 218 ft 9 kts 143°
2026-05-05 03:11 22.99226 -82.40780 224 ft 9 kts 197°
2026-05-05 03:11 22.99147 -82.40881 222 ft 35 kts 234°
2026-05-05 03:11 22.99003 -82.41098 221 ft 35 kts 234°
2026-05-05 03:12 22.98868 -82.41301 219 ft 32 kts 234°
2026-05-05 03:12 22.98744 -82.41486 221 ft 29 kts 234°
2026-05-05 03:12 22.98622 -82.41670 218 ft 34 kts 234°
2026-05-05 03:12 22.98467 -82.41905 220 ft 42 kts 234°
2026-05-05 03:13 22.98286 -82.42178 218 ft 45 kts 235°
2026-05-05 03:13 22.98133 -82.42409 219 ft 17 kts 234°
2026-05-05 03:13 22.98068 -82.42506 219 ft 11 kts 234°
2026-05-05 03:13 22.98053 -82.42529 221 ft 2 kts 233°
2026-05-05 03:14 22.98033 -82.42553 219 ft 6 kts 222°
2026-05-05 03:14 22.98030 -82.42556 218 ft 0 kts 220°
2026-05-05 03:15 22.98010 -82.42567 218 ft 5 kts 198°
2026-05-05 03:15 22.97952 -82.42546 218 ft 14 kts 144°
2026-05-05 03:16 22.97902 -82.42452 218 ft 18 kts 72°
2026-05-05 03:16 22.97995 -82.42297 220 ft 51 kts 54°
2026-05-05 03:16 22.98382 -82.41715 222 ft 136 kts 54°
2026-05-05 03:16 22.99030 -82.40725 644 ft 170 kts 54°
2026-05-05 03:17 22.99696 -82.39724 1764 ft 163 kts 56°
2026-05-05 03:17 23.00372 -82.38684 2500 ft 178 kts 56°
2026-05-05 03:17 23.01162 -82.37466 2881 ft 216 kts 55°
2026-05-05 03:17 23.02100 -82.36024 3227 ft 248 kts 55°
2026-05-05 03:18 23.03119 -82.34462 4153 ft 255 kts 54°
2026-05-05 03:18 23.04150 -82.32884 5226 ft 258 kts 54°
2026-05-05 03:18 23.05198 -82.31280 6182 ft 264 kts 54°
2026-05-05 03:18 23.06271 -82.29639 7116 ft 269 kts 54°
2026-05-05 03:19 23.09411 -82.27508 8495 ft 288 kts 356°
2026-05-05 03:19 23.11371 -82.27892 9468 ft 287 kts 343°
2026-05-05 03:19 23.13317 -82.28437 10376 ft 292 kts 342°
2026-05-05 03:20 23.15358 -82.29033 10753 ft 318 kts 341°
2026-05-05 03:20 23.17591 -82.29685 10949 ft 345 kts 342°
2026-05-05 03:20 23.19977 -82.30366 11390 ft 361 kts 342°
2026-05-05 03:20 23.22433 -82.31047 12112 ft 366 kts 342°
2026-05-05 03:21 23.24911 -82.31722 12926 ft 369 kts 342°
2026-05-05 03:21 23.27415 -82.32397 13709 ft 372 kts 342°
2026-05-05 03:21 23.29950 -82.33077 14381 ft 375 kts 342°
2026-05-05 03:21 23.32447 -82.33742 15463 ft 365 kts 342°
2026-05-05 03:22 23.34915 -82.34400 16225 ft 368 kts 341°
2026-05-05 03:22 23.37412 -82.35071 16535 ft 382 kts 341°
2026-05-05 03:22 23.40024 -82.35774 17013 ft 389 kts 341°
2026-05-05 03:22 23.42663 -82.36481 17647 ft 392 kts 341°
2026-05-05 03:23 23.45317 -82.37190 18299 ft 394 kts 341°
2026-05-05 03:23 23.47987 -82.37904 18831 ft 396 kts 341°
2026-05-05 03:23 23.50673 -82.38623 19383 ft 398 kts 341°
2026-05-05 03:23 23.53367 -82.39345 19952 ft 399 kts 341°
2026-05-05 03:24 23.56066 -82.40068 20508 ft 400 kts 341°
2026-05-05 03:24 23.58775 -82.40795 21046 ft 402 kts 341°
2026-05-05 03:24 23.61498 -82.41526 21572 ft 404 kts 341°
2026-05-05 03:24 23.64278 -82.42049 22198 ft 408 kts 350°
2026-05-05 03:25 23.67132 -82.42034 22856 ft 414 kts 359°
2026-05-05 03:25 23.70005 -82.41531 23384 ft 421 kts
2026-05-05 03:25 23.72850 -82.40891 23804 ft 424 kts
2026-05-05 03:25 23.75740 -82.40214 24273 ft 423 kts
2026-05-05 03:26 23.78598 -82.39538 24777 ft 419 kts
2026-05-05 03:26 23.81436 -82.38875 25009 ft 417 kts
2026-05-05 03:26 23.84310 -82.38217 25016 ft 424 kts
2026-05-05 03:26 23.87212 -82.37562 25023 ft 426 kts
2026-05-05 03:27 23.90111 -82.36907 25018 ft 424 kts
2026-05-05 03:27 23.92992 -82.36259 25024 ft 423 kts
2026-05-05 03:27 23.95835 -82.35620 25027 ft 422 kts
2026-05-05 03:27 23.98717 -82.34974 25027 ft 422 kts
2026-05-05 03:28 24.01607 -82.34327 25036 ft 427 kts
2026-05-05 03:28 24.04549 -82.33672 25034 ft 436 kts
2026-05-05 03:28 24.07548 -82.33003 25035 ft 443 kts
2026-05-05 03:28 24.10591 -82.32322 25032 ft 449 kts
2026-05-05 03:29 24.13677 -82.31629 25027 ft 454 kts
2026-05-05 03:29 24.16784 -82.30930 25031 ft 459 kts
2026-05-05 03:29 24.19926 -82.30221 25028 ft 462 kts
2026-05-05 03:29 24.23083 -82.29508 25026 ft 464 kts
2026-05-05 03:30 24.26245 -82.28793 25019 ft 464 kts
2026-05-05 03:30 24.29372 -82.28085 25021 ft 464 kts
2026-05-05 03:30 24.32533 -82.27371 25023 ft 464 kts
2026-05-05 03:30 24.35699 -82.26655 25023 ft 464 kts
2026-05-05 03:31 24.38863 -82.25940 25023 ft 464 kts
2026-05-05 03:31 24.42024 -82.25226 25023 ft 464 kts
2026-05-05 03:31 24.45186 -82.24511 25023 ft 464 kts
2026-05-05 03:31 24.48344 -82.23797 25021 ft 463 kts
2026-05-05 03:32 24.51507 -82.23082 25023 ft 463 kts
2026-05-05 03:32 24.54661 -82.22368 25021 ft 463 kts
2026-05-05 03:32 24.57824 -82.21652 25024 ft 463 kts
2026-05-05 03:32 24.60984 -82.20936 25026 ft 463 kts
2026-05-05 03:33 24.64136 -82.20222 25021 ft 463 kts
2026-05-05 03:33 24.67290 -82.19507 25025 ft 463 kts
2026-05-05 03:33 24.70446 -82.18791 25020 ft 463 kts
2026-05-05 03:33 24.73599 -82.18075 25028 ft 463 kts
2026-05-05 03:34 24.76764 -82.17356 25021 ft 463 kts
2026-05-05 03:34 24.79915 -82.16640 25025 ft 463 kts
2026-05-05 03:34 24.83072 -82.15922 25027 ft 463 kts
2026-05-05 03:34 24.86229 -82.15204 25029 ft 463 kts
2026-05-05 03:35 24.89384 -82.14486 25028 ft 463 kts
2026-05-05 03:35 24.92503 -82.13776 25027 ft 463 kts
2026-05-05 03:35 24.95705 -82.13046 25025 ft 464 kts
2026-05-05 03:35 24.98864 -82.12326 25029 ft 464 kts
2026-05-05 03:36 25.02025 -82.11605 25030 ft 464 kts
2026-05-05 03:36 25.05147 -82.10892 25031 ft 464 kts
2026-05-05 03:36 25.08310 -82.10170 25032 ft 464 kts
2026-05-05 03:36 25.11474 -82.09447 25032 ft 464 kts
2026-05-05 03:37 25.14645 -82.08723 25030 ft 465 kts
2026-05-05 03:37 25.17809 -82.07999 25032 ft 465 kts
2026-05-05 03:37 25.20976 -82.07274 25032 ft 465 kts
2026-05-05 03:37 25.24139 -82.06550 25034 ft 465 kts
2026-05-05 03:38 25.27309 -82.05824 25030 ft 465 kts
2026-05-05 03:38 25.30477 -82.05098 25031 ft 465 kts
2026-05-05 03:38 25.33641 -82.04372 25034 ft 465 kts
2026-05-05 03:38 25.36812 -82.03645 25035 ft 465 kts
2026-05-05 03:39 25.39977 -82.02918 25034 ft 465 kts
2026-05-05 03:39 25.43145 -82.02190 25033 ft 465 kts
2026-05-05 03:39 25.46315 -82.01462 25034 ft 465 kts
2026-05-05 03:39 25.49481 -82.00734 25034 ft 465 kts
2026-05-05 03:40 25.52651 -82.00005 25037 ft 465 kts
2026-05-05 03:40 25.55818 -81.99276 25041 ft 465 kts
2026-05-05 03:40 25.58986 -81.98546 25037 ft 465 kts
2026-05-05 03:40 25.62114 -81.97825 25038 ft 465 kts
2026-05-05 03:41 25.65284 -81.97094 25039 ft 465 kts
2026-05-05 03:41 25.68448 -81.96364 25040 ft 465 kts
2026-05-05 03:41 25.71621 -81.95632 25046 ft 465 kts
2026-05-05 03:41 25.74788 -81.94901 25038 ft 465 kts
2026-05-05 03:42 25.77962 -81.94168 25044 ft 465 kts
2026-05-05 03:42 25.81129 -81.93436 25045 ft 465 kts
2026-05-05 03:42 25.84297 -81.92703 25045 ft 465 kts
2026-05-05 03:42 25.87463 -81.91970 25052 ft 465 kts
2026-05-05 03:43 25.90634 -81.91236 25043 ft 465 kts
2026-05-05 03:43 25.92734 -81.90749 25050 ft 465 kts
2026-05-05 03:43 25.95899 -81.90016 25051 ft 465 kts
2026-05-05 03:43 25.99065 -81.89282 25044 ft 465 kts
2026-05-05 03:44 26.03262 -81.88308 25045 ft 465 kts
2026-05-05 03:44 26.05403 -81.87810 25047 ft 465 kts
2026-05-05 03:44 26.08567 -81.87076 25046 ft 465 kts
2026-05-05 03:44 26.11726 -81.86341 25050 ft 465 kts
2026-05-05 03:45 26.14894 -81.85605 25049 ft 465 kts
2026-05-05 03:45 26.18055 -81.84869 25049 ft 464 kts
2026-05-05 03:45 26.21218 -81.84133 25047 ft 464 kts
2026-05-05 03:45 26.24379 -81.83396 25049 ft 464 kts
2026-05-05 03:46 26.27546 -81.82658 25047 ft 464 kts
2026-05-05 03:46 26.30666 -81.81931 25046 ft 464 kts
2026-05-05 03:46 26.33838 -81.81191 25045 ft 464 kts
2026-05-05 03:46 26.36999 -81.80453 25053 ft 464 kts
2026-05-05 03:47 26.40163 -81.79713 25055 ft 464 kts
2026-05-05 03:47 26.43324 -81.78974 25057 ft 464 kts
2026-05-05 03:47 26.46487 -81.78235 25057 ft 464 kts
2026-05-05 03:47 26.49645 -81.77497 25058 ft 464 kts
2026-05-05 03:48 26.52810 -81.77134 25042 ft 451 kts 350°
2026-05-05 03:48 26.55907 -81.77522 25066 ft 446 kts 347°
2026-05-05 03:48 26.58998 -81.77947 25063 ft 447 kts 347°
2026-05-05 03:48 26.62089 -81.78352 25057 ft 447 kts 347°
2026-05-05 03:49 26.65191 -81.78739 25047 ft 448 kts 347°
2026-05-05 03:49 26.68287 -81.79113 25046 ft 448 kts 348°
2026-05-05 03:49 26.71381 -81.79479 25040 ft 441 kts 348°
2026-05-05 03:49 26.74319 -81.79816 25030 ft 419 kts 347°
2026-05-05 03:50 26.77183 -81.80144 25031 ft 399 kts 347°
2026-05-05 03:50 26.79896 -81.80462 25062 ft 397 kts 347°
2026-05-05 03:50 26.82628 -81.80791 25029 ft 394 kts 347°
2026-05-05 03:50 26.85349 -81.81119 24641 ft 391 kts 347°
2026-05-05 03:51 26.88046 -81.81442 24148 ft 389 kts 347°
2026-05-05 03:51 26.90731 -81.81762 23634 ft 386 kts 347°
2026-05-05 03:51 26.93393 -81.82080 23007 ft 384 kts 347°
2026-05-05 03:51 26.96034 -81.82394 22455 ft 380 kts 347°
2026-05-05 03:52 26.98658 -81.82707 21909 ft 377 kts 347°
2026-05-05 03:52 27.01258 -81.83016 21389 ft 374 kts 348°
2026-05-05 03:52 27.03840 -81.83323 20862 ft 372 kts 348°
2026-05-05 03:52 27.06407 -81.83636 20344 ft 369 kts 346°
2026-05-05 03:53 27.08826 -81.84425 19781 ft 358 kts 329°
2026-05-05 03:53 27.10914 -81.85925 19087 ft 357 kts 320°
2026-05-05 03:53 27.12900 -81.87611 18465 ft 358 kts 319°
2026-05-05 03:53 27.14871 -81.89322 17889 ft 357 kts 319°
2026-05-05 03:54 27.16828 -81.91018 17384 ft 353 kts 319°
2026-05-05 03:54 27.18769 -81.92687 16880 ft 350 kts 320°
2026-05-05 03:54 27.20704 -81.94340 16339 ft 349 kts 320°
2026-05-05 03:54 27.22636 -81.95984 15811 ft 347 kts 320°
2026-05-05 03:55 27.24562 -81.97619 15305 ft 345 kts 320°
2026-05-05 03:55 27.26473 -81.99240 14811 ft 343 kts 321°
2026-05-05 03:55 27.28372 -82.00851 14321 ft 342 kts 321°
2026-05-05 03:55 27.30267 -82.02458 13817 ft 340 kts 321°
2026-05-05 03:56 27.32153 -82.04060 13268 ft 339 kts 321°
2026-05-05 03:56 27.34006 -82.05632 12770 ft 337 kts 321°
2026-05-05 03:56 27.35872 -82.07217 12263 ft 335 kts 321°
2026-05-05 03:56 27.37718 -82.08808 11751 ft 333 kts 320°
2026-05-05 03:57 27.39496 -82.10456 11269 ft 331 kts 318°
2026-05-05 03:57 27.41258 -82.12118 10799 ft 329 kts 318°
2026-05-05 03:57 27.43000 -82.13751 10573 ft 320 kts 319°
2026-05-05 03:57 27.44663 -82.15334 10482 ft 306 kts 316°
2026-05-05 03:58 27.46183 -82.16943 10391 ft 293 kts 314°
2026-05-05 03:58 27.47611 -82.18519 10317 ft 282 kts 314°
2026-05-05 03:58 27.48967 -82.20025 10147 ft 275 kts 314°
2026-05-05 03:58 27.50342 -82.21551 9837 ft 274 kts 314°
2026-05-05 03:59 27.51692 -82.23043 9321 ft 279 kts 314°
2026-05-05 03:59 27.53090 -82.24584 8878 ft 282 kts 314°
2026-05-05 03:59 27.54500 -82.26134 8485 ft 283 kts 314°
2026-05-05 03:59 27.55912 -82.27684 8050 ft 284 kts 314°
2026-05-05 04:00 27.57328 -82.29238 7696 ft 284 kts 314°
2026-05-05 04:00 27.58737 -82.30783 7358 ft 282 kts 314°
2026-05-05 04:00 27.60141 -82.32322 7029 ft 280 kts 314°
2026-05-05 04:00 27.61534 -82.33850 6731 ft 278 kts 314°
2026-05-05 04:01 27.62916 -82.35365 6407 ft 277 kts 314°
2026-05-05 04:01 27.64296 -82.36880 6083 ft 276 kts 314°
2026-05-05 04:01 27.65621 -82.38436 5701 ft 276 kts 309°
2026-05-05 04:01 27.66861 -82.40096 5283 ft 277 kts 308°
2026-05-05 04:02 27.68087 -82.41778 4923 ft 277 kts 308°
2026-05-05 04:02 27.69316 -82.43454 4558 ft 277 kts 308°
2026-05-05 04:02 27.70546 -82.45120 4229 ft 276 kts 309°
2026-05-05 04:02 27.71755 -82.46749 4035 ft 270 kts 309°
2026-05-05 04:03 27.72942 -82.48339 3991 ft 262 kts 309°
2026-05-05 04:03 27.74123 -82.49917 3800 ft 262 kts 309°
2026-05-05 04:03 27.75294 -82.51482 3589 ft 258 kts 310°
2026-05-05 04:03 27.76440 -82.53014 3412 ft 252 kts 309°
2026-05-05 04:04 27.77746 -82.54252 3185 ft 241 kts 337°
2026-05-05 04:04 27.79341 -82.54651 3100 ft 235 kts 358°
2026-05-05 04:04 27.80994 -82.54742 2947 ft 237 kts
2026-05-05 04:04 27.82603 -82.54716 2665 ft 228 kts
2026-05-05 04:05 27.84148 -82.54657 2370 ft 217 kts
2026-05-05 04:05 27.85613 -82.54604 2075 ft 202 kts
2026-05-05 04:05 27.86963 -82.54559 1823 ft 186 kts
2026-05-05 04:05 27.88200 -82.54517 1621 ft 170 kts
2026-05-05 04:06 27.89323 -82.54478 1384 ft 154 kts
2026-05-05 04:06 27.90357 -82.54441 1176 ft 146 kts
2026-05-05 04:06 27.91376 -82.54407 1016 ft 145 kts
2026-05-05 04:06 27.92380 -82.54371 808 ft 144 kts
2026-05-05 04:07 27.93389 -82.54334 618 ft 146 kts
2026-05-05 04:07 27.94389 -82.54303 422 ft 142 kts
2026-05-05 04:07 27.95364 -82.54273 241 ft 138 kts
2026-05-05 04:07 27.96305 -82.54241 65 ft 137 kts
2026-05-05 04:08 27.97210 -82.54203 23 ft 115 kts
2026-05-05 04:08 27.97701 -82.54189 18 ft 28 kts
2026-05-05 04:08 27.97879 -82.54147 23 ft 26 kts 39°
2026-05-05 04:08 27.97907 -82.54075 21 ft 6 kts 112°
2026-05-05 04:09 27.97871 -82.54057 20 ft 6 kts 162°
2026-05-05 04:09 27.97848 -82.54021 22 ft 6 kts 108°
2026-05-05 04:09 27.97830 -82.53981 22 ft 6 kts 130°
2026-05-05 04:09 27.97816 -82.53943 21 ft 6 kts 85°
2026-05-05 04:10 27.97850 -82.53904 22 ft 9 kts 32°
2026-05-05 04:10 27.97889 -82.53872 23 ft 0 kts 37°
2026-05-05 04:10 27.97894 -82.53867 25 ft 0 kts 39°